Regional Weather Roundup
Issued by NWS Charleston, SC

Home | Current Version | Previous Version | Text Only | Print | Product List | Glossary On
Versions: 1 2 3 4 5 6 7 8 9 10 11 12 13 14 15 16 17 18 19 20 21 22 23 24 25 26 27 28 29 30 31 32 33 34 35 36 37 38 39 40 41 42 43 44 45 46 47 48 49 50
000
ASUS42 KCHS 040426
RWRCHS

REGIONAL WEATHER ROUNDUP
NATIONAL WEATHER SERVICE CHARLESTON SC
1100 PM EST TUE MAR 03 2015

NOTE: "FAIR" INDICATES FEW OR NO CLOUDS BELOW 12,000 FEET WITH NO
SIGNIFICANT WEATHER AND/OR OBSTRUCTIONS TO VISIBILITY.

NOT ALL STATIONS ARE QUALITY CONTROLLED BY THE NATIONAL
WEATHER SERVICE. USE DATA WITH CAUTION...ESPECIALLY
DEWPOINT OBSERVATIONS.

SCZ027-030-031-034>040-042>050-040500-
...SOUTHEAST SOUTH CAROLINA...

CITY           SKY/WX    TMP DP  RH WIND       PRES   REMARKS
N CHARLESTON   MOCLDY    53  51  93 CALM      30.16S
WATERFRONT PRK   N/A     48 N/A N/A CALM        N/A
MOUNT PLEASANT CLOUDY    52  50  93 CALM      30.15F FOG
PINOPOLIS      NOT AVBL
MONCKS CORNER  CLOUDY    48  45  87 CALM      30.16S
SUMMERVILLE    NOT AVBL
BEAUFORT MCAS  FOG       54  54 100 CALM      30.15S VSB 1
BEAUFORT ARPT  CLOUDY    54  54 100 CALM      30.14F FOG
HILTON HEAD IS FOG       55  55 100 SE3       30.15F VSB 1/2
WALTERBORO     CLOUDY    54  52  94 CALM      30.16F
ALLENDALE      CLOUDY    52  50  93 CALM      30.13F FOG

...SOUTHERN MIDLANDS AND PEE DEE...

CITY           SKY/WX    TMP DP  RH WIND       PRES   REMARKS
GEORGETOWN     NOT AVBL
KINGSTREE      NOT AVBL
ORANGEBURG     CLOUDY    46  43  89 CALM      30.15F FOG
BARNWELL       CLOUDY    48  48 100 CALM      30.14F FOG
AIKEN          FOG       46  46 100 CALM      30.16F VSB 1/4
MANNING        CLOUDY   N/A N/A N/A CALM      30.16S HAZE
COLUMBIA       CLOUDY    45  43  93 CALM      30.15S FOG
SUMTER         CLOUDY    43  41  93 CALM      30.13F
FLORENCE       CLOUDY    42  40  92 CALM      30.15F FOG
MYRTLE BEACH   CLOUDY    46  45  93 CALM      30.18S VSB 1/2
N MYRTLE BEACH FOG       47  45  93 CALM      30.15F VSB 3/4

$$

GAZ063-065-086>088-099>101-113>116-118-119-134>141-150-040500-
...SOUTHEAST GEORGIA...

CITY           SKY/WX    TMP DP  RH WIND       PRES   REMARKS
SAVANNAH ARPT  FOG       60  59  96 S6        30.15S VSB<1/4
HUNTER AAF     FOG       60  60 100 S2        30.13S VSB 1/2
FORT STEWART   PTCLDY    59  58  94 E3        30.12S
STATESBORO     DRIZZLE   63  63 100 SE3       30.12F
SYLVANIA       MOCLDY    56  56 100 CALM      30.14S FOG
CLAXTON        MOCLDY    64  64 100 CALM      30.13S

...CSRA...CENTRAL AND FAR SOUTHEAST GEORGIA...

CITY           SKY/WX    TMP DP  RH WIND       PRES   REMARKS
THOMSON        CLOUDY    52  52 100 CALM      30.17F VSB 1/4
AUGUSTA-BUSH   FOG       51  50  96 E3        30.13F VSB 1/4
AUGUSTA-DANIEL FOG       52  51  97 E5        30.13F VSB 1/4
SWAINSBORO     NOT AVBL
VIDALIA        PTCLDY    68  66  94 S5        30.12F
EASTMAN        FAIR      63  63 100 CALM      30.13S
HAZLEHURST     FAIR      69  67  93 SE5       30.11S
ALMA           CLEAR     67  64  90 S3        30.12F
WAYCROSS       CLEAR     71  68  92 S6        30.13F
JESUP          FAIR      68  64  88 CALM      30.14S
BAXLEY         FAIR      70  66  88 CALM      30.12F
BRUNSWICK      CLEAR     66  63  88 S8        30.15F
SAINT SIMONS   PTCLDY    61  60  97 S8        30.15S

$$

SCZ027-028-034-036>038-045-046-048>050-GAZ119-141-040500-
...LAKE AND SUPPLEMENTAL COASTAL OBSERVATIONS...

STATION/POSITION TIME  TEMP    WIND        PRES    WAVE   SWELL
                       AIR SEA DIR/SP/G            HT/PER HT/PER/DIR
                 (UTC) (F)     (DEG/KT/KT) (MB)    (FT/S) (FT/S/D)
UPR LAKE MARION  NOT AVBL
WINYAH BAY       0345   48     300/  2     1020.0S
LAKE MURRAY      0300   43      CALM  /  2 1020.7F
ACE BASIN NERRS  NOT AVBL
FORT PULASKI     0400   57 50  160/  1/  2 1021.3S
SAPELO ISLAND    0400   62     160/  6     1021.0S

$$

ANZ835-935-AMZ111-154-330-350-352-354-370-450-454-472-040500-
...C-MAN AND BUOY OBSERVATIONS...

STATION/POSITION TIME  TEMP    WIND        PRES    WAVE   SWELL
                       AIR SEA DIR/SP/G            HT/PER HT/PER/DIR
                 (UTC) (F)     (DEG/KT/KT) (MB)    (FT/S) (FT/S/D)
BUOY 41004       0350   67 68  140/  6/  6 1020.9F   5/ 8   5/ 8
BUOY 41008       0350   60 54  170/ 10/ 12 1020.8F   3/10   3/110/10
FOLLY BEACH CMAN 0400   50     360/  4/  5 1021.6S
CAPERS NEARSHORE NOT AVBL
FRIPP NEARSHORE  0300   51     120/  6/  6 1020.3F


STATION/POSITION TIME  TEMP    WIND        PRES    WAVE   SWELL
                       AIR SEA DIR/SP/G            HT/PER HT/PER/DIR
                 (UTC) (F)     (DEG/KT/KT) (MB)    (FT/S) (FT/S/D)
5E ST. MARYS GA  0321      54                N/A     2/ 9
FRYING PAN BUOY  0350   66 61  190/ 10/ 12 1021.1R   6/ 6   5/120/ 6
BUOY 41025       NOT AVBL
CAPE LOOKOUT NC  0400   60     200/ 11/ 14 1020.0F
BUOY 41002       0350   69 72  190/ 17/ 19 1024.8F   6/ 9   5/ 90/ 9
BUOY 41010       0320   74 75  140/ 12/ 14 1023.2R
ST AUGUSTINE FL  0400   61     170/  7/  8 1022.1R


$$


USA.gov is the U.S. government's official web portal to all federal, state and local government web resources and services.